GW4987 Weather Reports


Display with metric or nautical units.
time (UTC)temp
F
wind
direction
speed
MPH
gust
MPH
rain 1hr
in
rain 24hr
in
rain mn
in
humidity
%
barometer
mb
20260906064504 66 279 2.0 2.0 0.00 0.00 0.00 57 1022.2
20260906064003 66 317 0.0 2.0 0.00 0.00 0.00 58 1022.1
20260906063503 66 268 4.0 4.0 0.00 0.00 0.00 58 1022.1
20260906063004 67 261 3.0 4.0 0.00 0.00 0.00 56 1022.2
20260906062504 67 246 0.0 0.0 0.00 0.00 0.00 55 1022.2
20260906062004 67 267 2.0 3.0 0.00 0.00 0.00 55 1022.2
20260906061503 67 271 4.0 4.0 0.00 0.00 0.00 55 1022.1
20260906061003 67 269 3.0 3.0 0.00 0.00 0.00 56 1022.0
20260906060503 67 308 3.0 4.0 0.00 0.00 0.00 56 1022.3
20260906060004 66 268 4.0 5.0 0.00 0.00 0.00 58 1022.3
20260906055503 66 188 0.0 2.0 0.00 0.00 0.00 58 1022.1
20260906053504 68 186 0.0 0.0 0.00 0.00 0.00 56 1022.3
20260906053003 68 103 2.0 2.0 0.00 0.00 0.00 55 1022.3
20260906052503 68 81 0.0 3.0 0.00 0.00 0.00 56 1022.3
20260906052003 68 121 3.0 4.0 0.00 0.00 0.00 56 1022.4
20260906051504 68 128 2.0 2.0 0.00 0.00 0.00 55 1022.3
20260906051004 68 205 0.0 2.0 0.00 0.00 0.00 54 1022.4
20260906050504 69 199 2.0 4.0 0.00 0.00 0.00 53 1022.2
20260906050004 69 215 3.0 5.0 0.00 0.00 0.00 53 1022.2
20260906045503 69 241 4.0 5.0 0.00 0.00 0.00 53 1022.3
20260906045003 69 223 3.0 4.0 0.00 0.00 0.00 52 1022.3
20260906044504 69 266 3.0 4.0 0.00 0.00 0.00 53 1022.3
20260906044004 69 265 3.0 4.0 0.00 0.00 0.00 53 1022.2
20260906043504 69 264 4.0 4.0 0.00 0.00 0.00 54 1022.2
20260906043004 69 252 4.0 5.0 0.00 0.00 0.00 54 1022.2
20260906042503 69 267 5.0 6.0 0.00 0.00 0.00 55 1022.3
20260906042003 69 235 4.0 6.0 0.00 0.00 0.00 55 1022.2
20260906041504 69 260 3.0 3.0 0.00 0.00 0.00 55 1022.3
20260906041003 70 252 2.0 3.0 0.00 0.00 0.00 53 1022.2
20260906040503 70 263 3.0 3.0 0.00 0.00 0.00 53 1022.1
20260906040004 70 283 2.0 3.0 0.00 0.00 0.00 53 1022.2
20260906034004 69 272 5.0 5.0 0.00 0.00 0.00 54 1021.9
20260906033504 70 260 3.0 4.0 0.00 0.00 0.00 53 1022.1
20260906033004 70 227 2.0 3.0 0.00 0.00 0.00 52 1021.9
20260906032503 70 256 2.0 3.0 0.00 0.00 0.00 51 1021.9
20260906032003 70 263 4.0 4.0 0.00 0.00 0.00 52 1022.0
20260906031503 70 269 3.0 4.0 0.00 0.00 0.00 52 1021.9
20260906025503 71 269 2.0 2.0 0.00 0.00 0.00 52 1021.8
20260906025003 71 246 0.0 0.0 0.00 0.00 0.00 53 1021.7
20260906024504 71 309 0.0 0.0 0.00 0.00 0.00 52 1021.7
20260906024004 71 0 0.0 0.0 0.00 0.00 0.00 52 1021.7
20260906023504 71 309 0.0 0.0 0.00 0.00 0.00 52 1021.6
20260906023004 71 147 0.0 2.0 0.00 0.00 0.00 51 1021.7
20260906022503 72 207 4.0 5.0 0.00 0.00 0.00 51 1021.7
20260906022003 72 197 4.0 6.0 0.00 0.00 0.00 50 1021.8
20260906021504 72 199 3.0 3.0 0.00 0.00 0.00 50 1021.7
20260906015503 73 260 3.0 5.0 0.00 0.00 0.00 49 1021.7
20260906015004 73 199 6.0 8.0 0.00 0.00 0.00 49 1021.9
20260906014503 73 268 4.0 5.0 0.00 0.00 0.00 49 1021.8
20260906014003 73 259 5.0 5.0 0.00 0.00 0.00 49 1021.8
20260906013503 74 197 3.0 4.0 0.00 0.00 0.00 49 1021.8
20260906013003 74 262 5.0 9.0 0.00 0.00 0.00 48 1021.9
20260906012503 74 256 4.0 7.0 0.00 0.00 0.00 48 1021.8
20260906012003 74 248 5.0 5.0 0.00 0.00 0.00 48 1021.9
20260906011504 74 225 5.0 10.0 0.00 0.00 0.00 48 1021.7
20260906005503 75 248 3.0 4.0 0.00 0.00 0.00 47 1021.9
20260906005003 75 260 4.0 8.0 0.00 0.00 0.00 47 1022.0
20260906004504 76 223 7.0 10.0 0.00 0.00 0.00 47 1022.2
20260906004003 76 190 5.0 12.0 0.00 0.00 0.00 47 1021.9
20260906003503 76 238 7.0 14.0 0.00 0.00 0.00 47 1022.0
20260906003004 75 158 6.0 10.0 0.00 0.00 0.00 49 1022.1
20260906002503 75 180 6.0 9.0 0.00 0.00 0.00 49 1022.1
20260906002003 75 257 10.0 11.0 0.00 0.00 0.00 49 1022.0
20260906001504 75 219 3.0 14.0 0.00 0.00 0.00 49 1022.0
20260906001004 76 201 8.0 15.0 0.00 0.00 0.00 48 1022.0
20260906000504 77 197 7.0 15.0 0.00 0.00 0.00 47 1021.9
20260906000006 77 206 8.0 18.0 0.00 0.00 0.00 47 1022.0
20260905235503 78 202 15.0 18.0 0.00 0.00 0.00 46 1022.1
20260905235003 77 218 7.0 15.0 0.00 0.00 0.00 47 1022.0
20260905234504 75 226 11.0 20.0 0.00 0.00 0.00 49 1021.9
20260905234004 75 218 7.0 11.0 0.00 0.00 0.00 50 1021.9
20260905233504 76 207 15.0 20.0 0.00 0.00 0.00 49 1021.9
20260905233004 76 206 7.0 15.0 0.00 0.00 0.00 48 1021.9
20260905232503 76 215 8.0 11.0 0.00 0.00 0.00 47 1022.2
20260905232003 76 240 8.0 13.0 0.00 0.00 0.00 47 1022.1
20260905231504 76 227 10.0 15.0 0.00 0.00 0.00 47 1022.0
20260905231004 76 192 13.0 17.0 0.00 0.00 0.00 46 1022.0
20260905230504 76 253 7.0 14.0 0.00 0.00 0.00 45 1021.9
20260905230004 77 174 4.0 7.0 0.00 0.00 0.00 45 1022.0
20260905225504 76 190 11.0 11.0 0.00 0.00 0.00 46 1022.2
20260905225004 76 150 7.0 14.0 0.00 0.00 0.00 46 1022.0
20260905224504 76 196 2.0 13.0 0.00 0.00 0.00 47 1022.3
20260905224004 76 195 4.0 12.0 0.00 0.00 0.00 46 1022.3
20260905223504 76 169 5.0 6.0 0.00 0.00 0.00 48 1022.2
20260905223004 75 57 2.0 13.0 0.00 0.00 0.00 50 1022.0
20260905222504 75 138 9.0 14.0 0.00 0.00 0.00 51 1022.3
20260905222004 76 130 6.0 17.0 0.00 0.00 0.00 51 1022.2
20260905221503 76 163 3.0 10.0 0.00 0.00 0.00 50 1022.2
20260905221003 75 206 5.0 13.0 0.00 0.00 0.00 51 1022.3
20260905220504 76 158 9.0 19.0 0.00 0.00 0.00 50 1022.4
20260905220003 76 174 11.0 15.0 0.00 0.00 0.00 48 1022.3
20260905215504 77 184 16.0 17.0 0.00 0.00 0.00 47 1022.3
20260905215003 78 142 8.0 15.0 0.00 0.00 0.00 45 1022.1
20260905213003 79 218 7.0 15.0 0.00 0.00 0.00 43 1022.1
20260905212503 79 183 9.0 18.0 0.00 0.00 0.00 43 1022.3
20260905212004 80 149 12.0 18.0 0.00 0.00 0.00 42 1022.3
20260905211503 80 169 8.0 16.0 0.00 0.00 0.00 42 1022.3
20260905211003 82 200 4.0 17.0 0.00 0.00 0.00 40 1022.3
20260905210503 81 163 3.0 12.0 0.00 0.00 0.00 41 1022.3
20260905210003 80 157 3.0 20.0 0.00 0.00 0.00 42 1022.3
20260905205503 80 141 7.0 15.0 0.00 0.00 0.00 42 1022.4
20260905205004 79 198 12.0 15.0 0.00 0.00 0.00 42 1022.3
20260905204503 78 247 5.0 14.0 0.00 0.00 0.00 43 1022.3
20260905204003 79 216 15.0 20.0 0.00 0.00 0.00 42 1022.5
20260905203503 79 197 4.0 12.0 0.00 0.00 0.00 41 1022.5
20260905203003 79 140 10.0 20.0 0.00 0.00 0.00 41 1022.5
20260905202503 80 119 5.0 14.0 0.00 0.00 0.00 39 1022.4
20260905202003 80 136 19.0 22.0 0.00 0.00 0.00 39 1022.4
20260905201504 79 143 5.0 16.0 0.00 0.00 0.00 40 1022.5
20260905201004 80 221 13.0 18.0 0.00 0.00 0.00 38 1022.6
20260905200504 81 207 15.0 23.0 0.00 0.00 0.00 39 1022.5
20260905200004 82 222 10.0 17.0 0.00 0.00 0.00 37 1022.5
20260905195504 80 140 7.0 9.0 0.00 0.00 0.00 39 1022.5
20260905193503 78 215 7.0 15.0 0.00 0.00 0.00 39 1023.0
20260905193003 79 245 12.0 20.0 0.00 0.00 0.00 38 1022.9
20260905192503 78 185 5.0 9.0 0.00 0.00 0.00 37 1022.7
20260905192003 79 131 13.0 19.0 0.00 0.00 0.00 36 1022.9
20260905191504 79 141 12.0 14.0 0.00 0.00 0.00 36 1023.1
20260905191003 79 133 7.0 14.0 0.00 0.00 0.00 35 1022.9
20260905185003 79 182 8.0 9.0 0.00 0.00 0.00 34 1023.4
20260905184503 79 199 7.0 13.0 0.00 0.00 0.00 34 1023.5
20260905184003 79 153 6.0 12.0 0.00 0.00 0.00 35 1023.2
20260905183503 80 145 2.0 15.0 0.00 0.00 0.00 34 1023.2
20260905183003 78 222 4.0 9.0 0.00 0.00 0.00 34 1023.2
20260905182503 79 196 14.0 19.0 0.00 0.00 0.00 33 1023.2
20260905182004 78 248 5.0 12.0 0.00 0.00 0.00 33 1023.5
20260905181504 79 336 3.0 15.0 0.00 0.00 0.00 33 1023.5
20260905181004 80 165 7.0 12.0 0.00 0.00 0.00 34 1023.4
20260905180503 78 189 5.0 10.0 0.00 0.00 0.00 34 1023.1
20260905180004 77 152 8.0 19.0 0.00 0.00 0.00 35 1023.4
20260905175504 78 141 7.0 16.0 0.00 0.00 0.00 36 1023.5
20260905173504 79 145 6.0 8.0 0.00 0.00 0.00 34 1023.1
20260905173004 79 117 6.0 15.0 0.00 0.00 0.00 35 1023.2
20260905172504 78 139 9.0 15.0 0.00 0.00 0.00 35 1023.2
20260905170504 78 182 11.0 14.0 0.00 0.00 0.00 33 1023.2
20260905170004 79 170 5.0 13.0 0.00 0.00 0.00 34 1023.1
20260905165504 78 150 7.0 10.0 0.00 0.00 0.00 35 1023.4
20260905165004 77 201 5.0 17.0 0.00 0.00 0.00 34 1023.1
20260905164504 78 173 10.0 16.0 0.00 0.00 0.00 35 1023.4
20260905164004 77 227 8.0 13.0 0.00 0.00 0.00 35 1023.1
20260905163504 78 153 0.0 8.0 0.00 0.00 0.00 37 1023.1
20260905163004 78 192 3.0 8.0 0.00 0.00 0.00 37 1023.1
20260905162503 77 128 4.0 13.0 0.00 0.00 0.00 38 1023.0
20260905162003 77 128 11.0 13.0 0.00 0.00 0.00 38 1023.2
20260905161504 76 118 6.0 16.0 0.00 0.00 0.00 39 1022.9
20260905161004 77 112 6.0 10.0 0.00 0.00 0.00 38 1022.8
20260905160504 77 141 9.0 11.0 0.00 0.00 0.00 38 1022.9
20260905160004 76 135 5.0 11.0 0.00 0.00 0.00 38 1023.0
20260905155503 77 136 3.0 10.0 0.00 0.00 0.00 37 1023.0
20260905155003 76 126 5.0 13.0 0.00 0.00 0.00 38 1022.8
20260905154503 76 185 3.0 9.0 0.00 0.00 0.00 38 1022.8
20260905154003 77 106 5.0 7.0 0.00 0.00 0.00 39 1022.7
20260905153503 76 125 4.0 6.0 0.00 0.00 0.00 41 1023.0
20260905153004 76 156 3.0 6.0 0.00 0.00 0.00 41 1022.9
20260905152504 75 130 8.0 10.0 0.00 0.00 0.00 42 1022.8
20260905152004 75 82 2.0 6.0 0.00 0.00 0.00 43 1022.7
20260905150003 74 251 0.0 6.0 0.00 0.00 0.00 45 1022.7
20260905145504 73 116 4.0 6.0 0.00 0.00 0.00 46 1022.7
20260905145003 73 128 4.0 4.0 0.00 0.00 0.00 47 1022.9
20260905144503 73 125 5.0 6.0 0.00 0.00 0.00 43 1022.7
20260905144003 72 186 4.0 7.0 0.00 0.00 0.00 44 1022.8
20260905143503 72 162 2.0 4.0 0.00 0.00 0.00 45 1022.5
20260905143003 72 183 2.0 2.0 0.00 0.00 0.00 46 1022.6
20260905142504 70 23 0.0 2.0 0.00 0.00 0.00 48 1022.6
20260905141003 67 79 2.0 3.0 0.00 0.00 0.00 53 1022.6
20260905140503 65 66 0.0 3.0 0.00 0.00 0.00 55 1022.6
20260905140004 65 130 2.0 3.0 0.00 0.00 0.00 56 1022.5
20260905135504 65 234 3.0 3.0 0.00 0.00 0.00 57 1022.4
20260905135004 64 339 0.0 2.0 0.00 0.00 0.00 59 1022.3
20260905134503 61 77 2.0 2.0 0.00 0.00 0.00 63 1022.4
20260905134004 60 259 2.0 5.0 0.00 0.00 0.00 65 1022.3
20260905133503 59 271 4.0 5.0 0.00 0.00 0.00 66 1022.3
20260905133003 58 260 2.0 3.0 0.00 0.00 0.00 67 1022.3
20260905132503 58 201 3.0 3.0 0.00 0.00 0.00 68 1022.3
20260905132004 58 113 4.0 4.0 0.00 0.00 0.00 67 1022.2
20260905131503 57 80 0.0 2.0 0.00 0.00 0.00 68 1022.0
20260905131003 57 283 3.0 4.0 0.00 0.00 0.00 68 1021.9
20260905130504 56 279 3.0 4.0 0.00 0.00 0.00 69 1021.8
20260905130004 56 268 4.0 5.0 0.00 0.00 0.00 68 1022.1
20260905125504 57 262 5.0 7.0 0.00 0.00 0.00 68 1022.0
20260905125004 56 279 3.0 5.0 0.00 0.00 0.00 67 1021.9
20260905123003 57 194 0.0 2.0 0.00 0.00 0.00 65 1021.7
20260905122503 57 37 0.0 0.0 0.00 0.00 0.00 64 1021.7
20260905122004 58 43 0.0 2.0 0.00 0.00 0.00 63 1021.8
20260905121503 59 88 3.0 4.0 0.00 0.00 0.00 61 1021.6
20260905121003 61 308 0.0 4.0 0.00 0.00 0.00 58 1021.7
20260905120503 61 265 4.0 5.0 0.00 0.00 0.00 57 1021.8
20260905120004 61 263 4.0 6.0 0.00 0.00 0.00 57 1021.7
20260905115504 63 261 5.0 5.0 0.00 0.00 0.00 55 1021.7
20260905113504 62 265 5.0 7.0 0.00 0.00 0.00 54 1021.7
20260905113004 61 269 5.0 6.0 0.00 0.00 0.00 56 1021.6
20260905112504 60 267 3.0 5.0 0.00 0.00 0.00 57 1021.6
20260905112004 60 261 5.0 5.0 0.00 0.00 0.00 58 1021.7
20260905111503 59 264 4.0 5.0 0.00 0.00 0.00 59 1021.7
20260905111004 58 237 3.0 5.0 0.00 0.00 0.00 60 1021.9
20260905110503 57 253 4.0 4.0 0.00 0.00 0.00 62 1021.8
20260905110004 56 253 3.0 4.0 0.00 0.00 0.00 62 1021.8
20260905105504 55 249 2.0 5.0 0.00 0.00 0.00 64 1021.7
20260905105003 56 272 3.0 3.0 0.00 0.00 0.00 63 1021.5
20260905104503 56 247 3.0 3.0 0.00 0.00 0.00 62 1021.7
20260905104003 56 263 3.0 4.0 0.00 0.00 0.00 62 1021.8
20260905103503 57 259 2.0 3.0 0.00 0.00 0.00 60 1021.6
20260905103004 58 260 3.0 4.0 0.00 0.00 0.00 58 1021.7
20260905102504 59 234 2.0 4.0 0.00 0.00 0.00 57 1021.6
20260905102004 59 215 2.0 3.0 0.00 0.00 0.00 56 1021.5
20260905101504 60 255 3.0 4.0 0.00 0.00 0.00 54 1021.5
20260905101003 61 265 4.0 4.0 0.00 0.00 0.00 54 1021.3
20260905100503 61 232 3.0 4.0 0.00 0.00 0.00 53 1021.4
20260905100003 61 255 4.0 6.0 0.00 0.00 0.00 53 1021.6
20260905095504 61 197 3.0 6.0 0.00 0.00 0.00 54 1021.7
20260905095004 62 203 6.0 7.0 0.00 0.00 0.00 52 1021.8
20260905094504 62 204 6.0 12.0 0.00 0.00 0.00 52 1021.7
20260905094004 60 243 5.0 6.0 0.00 0.00 0.00 53 1021.7
20260905093503 60 185 4.0 7.0 0.00 0.00 0.00 53 1021.8
20260905093004 60 256 5.0 5.0 0.00 0.00 0.00 53 1021.6
20260905092504 60 248 3.0 5.0 0.00 0.00 0.00 53 1021.7
20260905092004 60 208 3.0 5.0 0.00 0.00 0.00 52 1021.8
20260905091504 60 228 5.0 5.0 0.00 0.00 0.00 53 1021.8
20260905091003 60 216 5.0 5.0 0.00 0.00 0.00 53 1021.8
20260905090503 60 229 0.0 6.0 0.00 0.00 0.00 52 1021.9
20260905090004 58 202 4.0 5.0 0.00 0.00 0.00 54 1021.7
20260905085503 57 225 3.0 4.0 0.00 0.00 0.00 55 1021.8
20260905085003 57 269 0.0 4.0 0.00 0.00 0.00 56 1021.8
20260905084504 57 244 2.0 4.0 0.00 0.00 0.00 56 1021.8
20260905084004 57 247 2.0 3.0 0.00 0.00 0.00 55 1021.9
20260905083504 58 256 2.0 5.0 0.00 0.00 0.00 54 1021.9
20260905083004 58 242 0.0 4.0 0.00 0.00 0.00 54 1021.8
20260905082503 58 274 2.0 2.0 0.00 0.00 0.00 53 1022.0
20260905082003 58 280 3.0 5.0 0.00 0.00 0.00 53 1022.1
20260905081504 58 257 3.0 3.0 0.00 0.00 0.00 54 1022.1
20260905075503 58 263 4.0 4.0 0.00 0.00 0.00 54 1022.0
20260905075003 58 261 2.0 3.0 0.00 0.00 0.00 55 1022.1
20260905074503 59 264 3.0 4.0 0.00 0.00 0.00 53 1021.9
20260905074003 59 273 4.0 5.0 0.00 0.00 0.00 53 1021.8
20260905073503 59 267 3.0 3.0 0.00 0.00 0.00 53 1022.2
20260905073004 60 267 3.0 3.0 0.00 0.00 0.00 52 1022.0
20260905071004 62 259 3.0 4.0 0.00 0.00 0.00 50 1022.0
20260905070504 62 260 2.0 3.0 0.00 0.00 0.00 49 1022.0
20260905070004 62 266 2.0 3.0 0.00 0.00 0.00 49 1022.0
20260905065504 63 266 2.0 3.0 0.00 0.00 0.00 48 1022.1
20260905065004 64 261 3.0 3.0 0.00 0.00 0.00 46 1022.1